| time (UTC) | temp F | wind direction | speed knots | gust knots | rain 1hr in | rain 24hr in | rain mn in | humidity % | barometer mb |
| 20260508004559 | 44 | 0 | 0.0 | 0.9 | 0.00 | 0.55 | 0.55 | 61 | 1018.9 |
| 20260508003055 | 43 | 0 | 0.0 | 0.0 | 0.00 | 0.55 | 0.55 | 65 | 1019.2 |
| 20260508001556 | 45 | 0 | 0.0 | 0.0 | 0.00 | 0.55 | 0.55 | 58 | 1019.0 |
| 20260508000058 | 49 | 25 | 0.0 | 0.9 | 0.00 | 0.55 | 0.55 | 54 | 1018.8 |
| 20260507234558 | 51 | 359 | 0.0 | 0.9 | 0.00 | 0.57 | 0.55 | 45 | 1018.8 |
| 20260507233115 | 53 | 338 | 0.0 | 2.6 | 0.00 | 0.57 | 0.55 | 44 | 1018.7 |
| 20260507231553 | 57 | 345 | 0.0 | 3.5 | 0.00 | 0.57 | 0.55 | 37 | 1018.9 |
| 20260507230058 | 56 | 90 | 2.6 | 5.2 | 0.00 | 0.57 | 0.55 | 38 | 1018.7 |
| 20260507224559 | 56 | 77 | 1.7 | 5.2 | 0.00 | 0.58 | 0.55 | 36 | 1018.9 |
| 20260507223105 | 54 | 325 | 0.9 | 2.6 | 0.00 | 0.58 | 0.55 | 40 | 1019.0 |
| 20260507221557 | 54 | 240 | 0.0 | 3.5 | 0.01 | 0.58 | 0.55 | 39 | 1019.0 |
| 20260507220058 | 53 | 236 | 0.9 | 3.5 | 0.01 | 0.58 | 0.55 | 40 | 1019.0 |
| 20260507214557 | 52 | 245 | 0.9 | 3.5 | 0.02 | 0.61 | 0.55 | 42 | 1019.2 |
| 20260507213054 | 52 | 119 | 0.9 | 4.3 | 0.03 | 0.61 | 0.55 | 42 | 1019.6 |
| 20260507211602 | 52 | 115 | 0.9 | 3.5 | 0.04 | 0.60 | 0.54 | 42 | 1019.9 |
| 20260507210113 | 51 | 252 | 0.9 | 2.6 | 0.11 | 0.60 | 0.54 | 42 | 1020.2 |
| 20260507204555 | 51 | 275 | 0.9 | 3.5 | 0.19 | 0.58 | 0.52 | 38 | 1020.5 |
| 20260507203056 | 51 | 240 | 0.9 | 4.3 | 0.27 | 0.58 | 0.52 | 33 | 1020.8 |
| 20260507201559 | 52 | 224 | 0.9 | 3.5 | 0.33 | 0.56 | 0.50 | 33 | 1021.1 |
| 20260507200105 | 53 | 224 | 1.7 | 2.6 | 0.35 | 0.49 | 0.43 | 33 | 1021.0 |
| 20260507194608 | 53 | 248 | 0.9 | 1.7 | 0.33 | 0.40 | 0.34 | 34 | 1021.0 |
| 20260507193052 | 53 | 191 | 0.9 | 2.6 | 0.24 | 0.30 | 0.24 | 30 | 1021.1 |
| 20260507191554 | 53 | 217 | 0.9 | 1.7 | 0.17 | 0.23 | 0.17 | 34 | 1021.2 |
| 20260507190107 | 51 | 266 | 0.0 | 1.7 | 0.08 | 0.14 | 0.08 | 37 | 1021.4 |
| 20260507184554 | 51 | 252 | 0.0 | 1.7 | 0.01 | 0.07 | 0.01 | 38 | 1021.7 |
| 20260507183114 | 49 | 0 | 0.0 | 0.9 | 0.00 | 0.06 | 0.00 | 46 | 1022.0 |
| 20260507181559 | 46 | 0 | 0.0 | 0.9 | 0.00 | 0.06 | 0.00 | 42 | 1022.4 |
| 20260507180055 | 44 | 0 | 0.0 | 0.0 | 0.00 | 0.06 | 0.00 | 47 | 1022.5 |
| 20260507174602 | 43 | 0 | 0.0 | 0.0 | 0.00 | 0.06 | 0.00 | 53 | 1022.4 |
| 20260507173115 | 41 | 0 | 0.0 | 0.0 | 0.00 | 0.06 | 0.00 | 55 | 1022.6 |
| 20260507171557 | 40 | 0 | 0.0 | 0.0 | 0.00 | 0.06 | 0.00 | 57 | 1022.6 |
| 20260507170054 | 39 | 0 | 0.0 | 0.0 | 0.00 | 0.06 | 0.00 | 52 | 1022.7 |
| 20260507164622 | 38 | 0 | 0.0 | 0.0 | 0.00 | 0.06 | 0.00 | 59 | 1022.8 |
| 20260507163059 | 38 | 0 | 0.0 | 0.0 | 0.00 | 0.06 | 0.00 | 65 | 1022.5 |
| 20260507161559 | 36 | 0 | 0.0 | 0.0 | 0.00 | 0.06 | 0.00 | 63 | 1022.7 |
| 20260507160052 | 35 | 0 | 0.0 | 0.0 | 0.00 | 0.06 | 0.00 | 60 | 1022.7 |
| 20260507154556 | 36 | 0 | 0.0 | 0.0 | 0.00 | 0.06 | 0.00 | 61 | 1022.9 |
| 20260507153055 | 37 | 0 | 0.0 | 0.0 | 0.00 | 0.06 | 0.00 | 66 | 1022.8 |
| 20260507151553 | 36 | 0 | 0.0 | 0.0 | 0.00 | 0.06 | 0.00 | 63 | 1023.2 |
| 20260507150055 | 36 | 0 | 0.0 | 0.0 | 0.00 | 0.06 | 0.00 | 63 | 1023.0 |
| 20260507144600 | 35 | 0 | 0.0 | 0.0 | 0.00 | 0.06 | 0.00 | 65 | 1022.8 |
| 20260507143105 | 36 | 0 | 0.0 | 0.0 | 0.00 | 0.06 | 0.00 | 65 | 1022.8 |
| 20260507141601 | 33 | 0 | 0.0 | 0.0 | 0.00 | 0.06 | 0.00 | 73 | 1022.7 |
| 20260507140052 | 33 | 0 | 0.0 | 0.0 | 0.00 | 0.06 | 0.00 | 75 | 1022.6 |
| 20260507134600 | 29 | 0 | 0.0 | 0.0 | 0.00 | 0.06 | 0.00 | 85 | 1022.6 |
| 20260507133057 | 26 | 0 | 0.0 | 0.0 | 0.00 | 0.06 | 0.00 | 89 | 1022.8 |
| 20260507131607 | 24 | 0 | 0.0 | 0.0 | 0.00 | 0.06 | 0.00 | 89 | 1022.3 |
| 20260507130055 | 22 | 0 | 0.0 | 0.0 | 0.00 | 0.06 | 0.00 | 91 | 1022.3 |
| 20260507124602 | 19 | 0 | 0.0 | 0.0 | 0.00 | 0.06 | 0.00 | 90 | 1022.1 |
| 20260507123048 | 18 | 0 | 0.0 | 0.0 | 0.00 | 0.06 | 0.00 | 91 | 1022.3 |
| 20260507121555 | 17 | 0 | 0.0 | 0.0 | 0.00 | 0.06 | 0.00 | 91 | 1022.4 |
| 20260507120055 | 17 | 0 | 0.0 | 0.0 | 0.00 | 0.06 | 0.00 | 90 | 1022.3 |
| 20260507114606 | 17 | 0 | 0.0 | 0.0 | 0.00 | 0.06 | 0.00 | 90 | 1022.1 |
| 20260507113126 | 17 | 0 | 0.0 | 0.0 | 0.00 | 0.06 | 0.00 | 91 | 1022.2 |
| 20260507111558 | 17 | 0 | 0.0 | 0.0 | 0.00 | 0.06 | 0.00 | 91 | 1022.0 |
| 20260507110049 | 17 | 0 | 0.0 | 0.0 | 0.00 | 0.06 | 0.00 | 91 | 1022.0 |
| 20260507104556 | 17 | 0 | 0.0 | 0.0 | 0.00 | 0.06 | 0.00 | 91 | 1022.0 |
| 20260507103056 | 17 | 0 | 0.0 | 0.0 | 0.00 | 0.06 | 0.00 | 91 | 1022.3 |
| 20260507101556 | 17 | 0 | 0.0 | 0.0 | 0.00 | 0.06 | 0.00 | 91 | 1022.2 |
| 20260507100057 | 17 | 0 | 0.0 | 0.0 | 0.00 | 0.06 | 0.00 | 90 | 1022.0 |
| 20260507094557 | 17 | 0 | 0.0 | 0.0 | 0.00 | 0.06 | 0.00 | 90 | 1022.3 |
| 20260507093056 | 17 | 0 | 0.0 | 0.0 | 0.00 | 0.06 | 0.00 | 91 | 1022.6 |
| 20260507091630 | 17 | 0 | 0.0 | 0.0 | 0.00 | 0.06 | 0.00 | 90 | 1022.4 |
| 20260507090053 | 17 | 0 | 0.0 | 0.0 | 0.00 | 0.06 | 0.00 | 90 | 1022.3 |
| 20260507084604 | 18 | 0 | 0.0 | 0.0 | 0.00 | 0.06 | 0.00 | 91 | 1022.2 |
| 20260507083051 | 18 | 0 | 0.0 | 0.0 | 0.00 | 0.06 | 0.00 | 91 | 1022.3 |
| 20260507081558 | 18 | 0 | 0.0 | 0.0 | 0.00 | 0.06 | 0.00 | 90 | 1022.3 |
| 20260507080053 | 18 | 0 | 0.0 | 0.0 | 0.00 | 0.06 | 0.00 | 91 | 1022.3 |
| 20260507074558 | 18 | 0 | 0.0 | 0.0 | 0.00 | 0.06 | 0.00 | 90 | 1022.4 |
| 20260507073055 | 18 | 0 | 0.0 | 0.0 | 0.00 | 0.06 | 0.00 | 91 | 1022.4 |
| 20260507071552 | 18 | 0 | 0.0 | 0.0 | 0.00 | 0.06 | 0.00 | 91 | 1022.4 |
| 20260507070105 | 18 | 0 | 0.0 | 0.0 | 0.00 | 0.06 | 0.00 | 91 | 1022.6 |
| 20260507064552 | 18 | 0 | 0.0 | 0.0 | 0.00 | 0.06 | 0.00 | 91 | 1022.6 |
| 20260507063053 | 18 | 0 | 0.0 | 0.0 | 0.00 | 0.06 | 0.00 | 90 | 1022.6 |
| 20260507061552 | 19 | 0 | 0.0 | 0.0 | 0.00 | 0.06 | 0.00 | 91 | 1022.3 |
| 20260507060100 | 18 | 0 | 0.0 | 0.0 | 0.00 | 0.06 | 0.00 | 91 | 1022.2 |
| 20260507054549 | 19 | 0 | 0.0 | 0.0 | 0.00 | 0.06 | 0.06 | 91 | 1022.0 |
| 20260507053057 | 19 | 0 | 0.0 | 0.0 | 0.00 | 0.06 | 0.06 | 91 | 1021.8 |
| 20260507051553 | 18 | 0 | 0.0 | 0.0 | 0.00 | 0.06 | 0.06 | 90 | 1021.7 |
| 20260507050049 | 19 | 0 | 0.0 | 0.0 | 0.00 | 0.06 | 0.06 | 91 | 1021.4 |
| 20260507044606 | 19 | 0 | 0.0 | 0.0 | 0.00 | 0.06 | 0.06 | 91 | 1021.3 |
| 20260507043103 | 18 | 0 | 0.0 | 0.0 | 0.00 | 0.06 | 0.06 | 90 | 1021.1 |
| 20260507041556 | 18 | 0 | 0.0 | 0.0 | 0.00 | 0.06 | 0.06 | 90 | 1021.0 |
| 20260507040055 | 19 | 0 | 0.0 | 0.0 | 0.00 | 0.06 | 0.06 | 91 | 1020.9 |
| 20260507034555 | 19 | 0 | 0.0 | 0.0 | 0.00 | 0.06 | 0.06 | 91 | 1020.8 |
| 20260507033056 | 19 | 0 | 0.0 | 0.0 | 0.00 | 0.06 | 0.06 | 90 | 1020.8 |
| 20260507031557 | 19 | 0 | 0.0 | 0.0 | 0.00 | 0.06 | 0.06 | 89 | 1020.6 |
| 20260507030057 | 20 | 0 | 0.0 | 0.0 | 0.00 | 0.06 | 0.06 | 89 | 1020.6 |
| 20260507024557 | 20 | 0 | 0.0 | 0.0 | 0.00 | 0.06 | 0.06 | 90 | 1020.4 |
| 20260507023108 | 21 | 0 | 0.0 | 0.0 | 0.00 | 0.06 | 0.06 | 89 | 1020.5 |
| 20260507021555 | 21 | 0 | 0.0 | 0.0 | 0.00 | 0.06 | 0.06 | 88 | 1020.3 |
| 20260507020103 | 21 | 0 | 0.0 | 0.0 | 0.00 | 0.06 | 0.06 | 87 | 1020.2 |
| 20260507014559 | 22 | 0 | 0.0 | 0.0 | 0.00 | 0.07 | 0.06 | 87 | 1020.0 |
| 20260507013057 | 23 | 0 | 0.0 | 0.0 | 0.00 | 0.07 | 0.06 | 85 | 1019.9 |
| 20260507011603 | 24 | 0 | 0.0 | 0.0 | 0.00 | 0.07 | 0.06 | 82 | 1019.6 |
| 20260507010052 | 27 | 0 | 0.0 | 0.0 | 0.00 | 0.07 | 0.06 | 81 | 1019.3 |